Kelso-Longview, WA
on Tuesday, January 8, 2013

Tuesday
Previous Day Next Day
Daily Summary
 ActualAverage (KSPB)Record (KSPB)
Temperature
Mean Temperature °F °F  
Max Temperature 53°F °F 55°F (2002)
Min Temperature 42°F °F 26°F (2003)
Degree Days
Heating Degree Days 18    
Month to date heating degree days  
Since 1 July heating degree days  
Cooling Degree Days 0    
Month to date cooling degree days  
Year to date cooling degree days  
Moisture
Dew Point 44°F   
Average Humidity 85    
Maximum Humidity 93    
Minimum Humidity 71    
Precipitation
Precipitation 0.26 in in 0.67 in (2008)
Month to date precipitation  
Year to date precipitation  
Wind
Wind Speed 7 mph   
Max Wind Speed 18 mph   
Max Gust Speed 28 mph   
Visibility 8 miles   
Events     

Key: T is trace of precipitation, MM is missing value
Source: NWS Daily Summary
Time(PST)TemperatureDew PointHumidity Pressure Visibility Wind DirectionWind SpeedGust SpeedPrecipitationEvents Conditions
12:15 AM 44.6°F 41.0°F 87% 30.20 in 7.0 miles SE 3.5 mph - N/A   Overcast
12:35 AM 44.6°F 41.0°F 87% 30.20 in 5.0 miles Calm Calm - N/A   Overcast
12:55 AM 44.6°F 41.0°F 87% 30.20 in 5.0 miles Calm Calm - N/A   Overcast
1:15 AM 42.8°F 41.0°F 93% 30.19 in 5.0 miles Calm Calm - N/A   Overcast
1:35 AM 44.6°F 41.0°F 87% 30.19 in 9.0 miles SE 3.5 mph - N/A   Overcast
1:55 AM 42.8°F 41.0°F 93% 30.18 in 10.0 miles Calm Calm - N/A   Overcast
2:15 AM 44.6°F 41.0°F 87% 30.19 in 10.0 miles SE 4.6 mph - N/A   Overcast
2:35 AM 44.6°F 41.0°F 87% 30.17 in 10.0 miles SE 5.8 mph - N/A   Overcast
2:55 AM 44.6°F 41.0°F 87% 30.16 in 10.0 miles SE 8.1 mph - N/A   Overcast
3:15 AM 44.6°F 41.0°F 87% 30.17 in 5.0 miles SSE 6.9 mph - N/A   Overcast
3:35 AM 44.6°F 41.0°F 87% 30.16 in 5.0 miles SE 4.6 mph - N/A   Overcast
3:55 AM 44.6°F 41.0°F 87% 30.15 in 7.0 miles SE 5.8 mph - N/A   Overcast
4:15 AM 44.6°F 41.0°F 87% 30.15 in 5.0 miles SE 4.6 mph - N/A   Overcast
4:35 AM 44.6°F 41.0°F 87% 30.12 in 5.0 miles SE 3.5 mph - 0.01 in   Overcast
4:55 AM 44.6°F 41.0°F 87% 30.12 in 5.0 miles Calm Calm - 0.02 in   Overcast
5:15 AM 44.6°F 41.0°F 87% 30.10 in 3.0 miles Calm Calm - N/A   Overcast
5:35 AM 44.6°F 41.0°F 87% 30.09 in 4.0 miles Calm Calm - 0.01 in   Overcast
6:15 AM 44.6°F 41.0°F 87% 30.06 in 8.0 miles SE 8.1 mph - 0.01 in   Overcast
6:35 AM 44.6°F 42.8°F 93% 30.06 in 6.0 miles SE 9.2 mph - 0.01 in   Overcast
6:55 AM 44.6°F 42.8°F 93% 30.05 in 5.0 miles SE 9.2 mph - 0.01 in   Overcast
7:15 AM 44.6°F 42.8°F 93% 30.05 in 4.0 miles SSE 10.4 mph - 0.01 in   Overcast
7:35 AM 44.6°F 42.8°F 93% 30.04 in 5.0 miles SE 9.2 mph - 0.02 in   Overcast
7:55 AM 44.6°F 42.8°F 93% 30.06 in 9.0 miles SE 5.8 mph - 0.02 in   Overcast
8:15 AM 44.6°F 42.8°F 93% 30.06 in 3.0 miles SE 4.6 mph - 0.01 in   Overcast
8:35 AM 46.4°F 42.8°F 87% 30.06 in 3.0 miles SSE 9.2 mph - 0.03 in   Overcast
8:55 AM 46.4°F 44.6°F 93% 30.06 in 3.0 miles SSE 10.4 mph - 0.06 in   Overcast
9:15 AM 46.4°F 44.6°F 93% 30.06 in 5.0 miles SSE 9.2 mph - 0.01 in   Overcast
9:35 AM 46.4°F 44.6°F 93% 30.05 in 3.0 miles SSE 10.4 mph - 0.03 in   Overcast
9:55 AM 48.2°F 44.6°F 87% 30.05 in 3.0 miles SSE 6.9 mph - 0.04 in   Overcast
10:15 AM 48.2°F 44.6°F 87% 30.04 in 5.0 miles SSE 12.7 mph 19.6 mph N/A   Overcast
10:35 AM 48.2°F 46.4°F 93% 30.04 in 9.0 miles SSE 15.0 mph 24.2 mph 0.01 in   Overcast
10:55 AM 48.2°F 46.4°F 93% 30.04 in 7.0 miles SSE 13.8 mph 23.0 mph 0.04 in   Overcast
11:15 AM 48.2°F 46.4°F 93% 30.04 in 5.0 miles SSE 10.4 mph 19.6 mph 0.01 in   Overcast
11:55 AM 50.0°F 46.4°F 87% 30.02 in 9.0 miles SSE 12.7 mph 20.7 mph 0.02 in   Overcast
12:15 PM 51.8°F 46.4°F 82% 30.02 in 6.0 miles SSE 12.7 mph 20.7 mph N/A   Overcast
12:35 PM 50.0°F 46.4°F 87% 30.01 in 9.0 miles South 15.0 mph 20.7 mph 0.01 in   Overcast
12:55 PM 50.0°F 46.4°F 87% 30.01 in 3.0 miles SSE 13.8 mph 20.7 mph 0.01 in   Overcast
1:15 PM 51.8°F 46.4°F 82% 30.00 in 10.0 miles SSE 17.3 mph 20.7 mph 0.01 in   Overcast
1:35 PM 51.8°F 46.4°F 82% 30.00 in 9.0 miles SSE 15.0 mph 23.0 mph 0.01 in   Overcast
1:55 PM 51.8°F 46.4°F 82% 30.00 in 10.0 miles SE 15.0 mph 20.7 mph 0.01 in   Overcast
2:15 PM 51.8°F 46.4°F 82% 29.99 in 10.0 miles SSE 16.1 mph 23.0 mph 0.01 in   Overcast
2:35 PM 51.8°F 46.4°F 82% 29.99 in 10.0 miles SSE 15.0 mph 20.7 mph 0.01 in   Overcast
2:55 PM 51.8°F 46.4°F 82% 29.98 in 10.0 miles SSE 15.0 mph 21.9 mph 0.01 in   Overcast
3:15 PM 51.8°F 46.4°F 82% 29.98 in 10.0 miles SSE 13.8 mph 21.9 mph N/A   Overcast
3:35 PM 51.8°F 46.4°F 82% 29.98 in 10.0 miles SE 15.0 mph 23.0 mph N/A   Overcast
3:55 PM 51.8°F 46.4°F 82% 29.99 in 10.0 miles SSE 12.7 mph 23.0 mph N/A   Overcast
4:15 PM 51.8°F 48.2°F 88% 29.99 in 9.0 miles SE 15.0 mph 21.9 mph N/A   Overcast
4:35 PM 51.8°F 48.2°F 88% 29.99 in 9.0 miles SSE 13.8 mph 17.3 mph N/A   Overcast
4:55 PM 51.8°F 48.2°F 88% 29.98 in 7.0 miles SSE 10.4 mph - N/A   Overcast
5:15 PM 51.8°F 48.2°F 88% 29.97 in 10.0 miles South 8.1 mph - N/A   Overcast
5:35 PM 51.8°F 48.2°F 88% 29.96 in 9.0 miles SSE 9.2 mph 17.3 mph N/A   Overcast
5:55 PM 51.8°F 46.4°F 82% 29.95 in 9.0 miles SSE 12.7 mph - N/A   Overcast
6:15 PM 51.8°F 46.4°F 82% 29.94 in 10.0 miles SSE 12.7 mph 19.6 mph 0.01 in   Overcast
6:35 PM 51.8°F 46.4°F 82% 29.93 in 10.0 miles SSE 13.8 mph 21.9 mph 0.01 in   Overcast
6:55 PM 51.8°F 46.4°F 82% 29.93 in 10.0 miles SSE 12.7 mph 19.6 mph 0.01 in   Overcast
7:15 PM 51.8°F 46.4°F 82% 29.93 in 10.0 miles SSE 9.2 mph - N/A   Overcast
7:35 PM 51.8°F 46.4°F 82% 29.93 in 10.0 miles SSE 16.1 mph 21.9 mph N/A   Overcast
8:15 PM 51.8°F 46.4°F 82% 29.91 in 9.0 miles SSE 17.3 mph 25.3 mph N/A   Overcast
8:35 PM 51.8°F 46.4°F 82% 29.91 in 8.0 miles SSE 15.0 mph 27.6 mph N/A   Overcast
9:15 PM 51.8°F 46.4°F 82% 29.90 in 10.0 miles SSE 18.4 mph 27.6 mph N/A   Mostly Cloudy
9:35 PM 51.8°F 46.4°F 82% 29.90 in 10.0 miles SSE 15.0 mph 25.3 mph N/A   Overcast
9:55 PM 53.6°F 44.6°F 72% 29.90 in 10.0 miles SE 16.1 mph 25.3 mph N/A   Overcast
10:15 PM 53.6°F 44.6°F 72% 29.90 in 10.0 miles SSE 15.0 mph 25.3 mph N/A   Overcast
10:35 PM 53.6°F 44.6°F 72% 29.89 in 10.0 miles SSE 15.0 mph 25.3 mph N/A   Overcast
10:55 PM 53.6°F 44.6°F 72% 29.87 in 10.0 miles SSE 15.0 mph 19.6 mph N/A   Mostly Cloudy
11:15 PM 53.6°F 44.6°F 72% 29.87 in 10.0 miles SSE 11.5 mph 19.6 mph N/A   Mostly Cloudy
11:35 PM 53.6°F 44.6°F 72% 29.86 in 10.0 miles SSE 16.1 mph 20.7 mph N/A   Overcast
11:55 PM 51.8°F 42.8°F 71% 29.87 in 10.0 miles South 10.4 mph - N/A   Mostly Cloudy
Moon Phase
Jan. 08 Jan. 11 Jan. 18 Jan. 26 Feb. 03
Sunrise:07:52 AM (PST) Moon Rise:04:31 AM (PST)1/8
Sunset:04:44 PM (PST) Moon Set:01:52 PM (PST)1/8

Copyright © 2014 The Weather Underground, Inc.